#datint,netname,site,siteID,timestamp,IntT,BattV,AirT2,AirT,AirT_Avg,AirT_Max,AirT_Min,RH_Avg,RH_Max,RH_Min,EA_Avg,Td_Avg,Td_Max,Td_Min,WindS_Smp,WindS_Avg,WindD_Avg,WindD_SD,WindS_Max,ETo,ETr,SoilT4,SoilT8,SoilVWC8,SolarW_Avg,wetstate_Avg,wetT_Avg,Precip_accum,Precip_WPG,Precip_TB
15min,AgWx,beryljct,423,01JUL2020:00:00:00,58.0,12.92,57.6,56.6,56.8,59.2,53.2,33,46,26,0.493,27.8,33.8,24.0,5.809,5.6,166,8.1,6.7,0.00037,0.00053,67.0,67.8,10,0,.,.,13.47,0.00,0.00
15min,AgWx,beryljct,423,01JUL2020:00:15:00,56.8,12.91,53.3,52.5,54.6,56.6,52.5,34,44,30,0.597,26.5,31.4,24.1,5.502,4.8,174,9.5,6.0,0.00028,0.00041,66.6,67.7,10,0,.,.,13.48,0.00,0.00
15min,AgWx,beryljct,423,01JUL2020:00:30:00,55.4,12.91,52.8,52.2,52.0,53.9,49.8,44,52,35,0.572,30.5,32.8,26.5,5.48,5.3,167,8.5,6.5,0.00023,0.00033,66.3,67.6,10,0,.,.,13.48,0.00,0.00
15min,AgWx,beryljct,423,01JUL2020:00:45:00,54.3,12.89,51.8,51.4,52.3,53.5,51.4,38,43,35,0.498,27.7,30.4,25.2,5.634,5.2,176,5.8,6.3,0.00027,0.00038,66.0,67.5,10,0,.,.,13.48,0.00,0.00
15min,AgWx,beryljct,423,01JUL2020:01:00:00,53.5,12.89,50.7,52.0,52.3,54.5,50.3,37,44,32,0.513,27.0,28.9,25.1,5.217,4.9,174,12,6.6,0.00025,0.00037,65.7,67.5,11,0,.,.,13.48,0.00,0.00
15min,AgWx,beryljct,423,01JUL2020:01:15:00,53.0,12.87,52.5,53.0,53.0,54.1,51.1,36,44,33,0.479,26.8,29.7,25.5,4.932,5.7,169,7.6,6.8,0.00032,0.00045,65.3,67.4,10,0,.,.,13.48,0.00,0.00
15min,AgWx,beryljct,423,01JUL2020:01:30:00,52.6,12.87,46.9,46.6,51.2,53.6,46.3,39,61,31,0.598,26.9,33.9,24.0,1.491,3.5,176,39,6.0,0.00013,0.00021,65.0,67.3,10,0,.,.,13.48,0.00,0.00
15min,AgWx,beryljct,423,01JUL2020:01:45:00,51.6,12.87,46.5,47.2,47.7,49.0,45.3,53,64,44,0.593,31.3,34.1,27.6,2.696,1.5,316,32,5.0,-0.00014,-0.00017,64.7,67.2,10,0,.,.,13.48,0.00,0.00
15min,AgWx,beryljct,423,01JUL2020:02:00:00,50.5,12.86,47.1,46.8,46.9,48.0,45.8,51,56,45,0.569,29.9,31.7,27.4,1.513,3.4,302,1.7,5.7,0.00004,0.00009,64.4,67.1,10,0,.,.,13.49,0.00,0.00
15min,AgWx,beryljct,423,01JUL2020:02:15:00,49.8,12.84,47.7,46.8,48.3,50.6,46.0,46,56,36,0.572,28.2,31.3,24.4,3.223,3.2,311,12,4.6,0.00005,0.00010,64.1,67.0,11,0,.,.,13.48,0.00,0.00
15min,AgWx,beryljct,423,01JUL2020:02:30:00,49.4,12.84,53.3,52.6,49.4,52.6,46.9,40,52,30,0.405,25.7,30.1,21.9,4.341,4.2,315,9.1,4.7,0.00017,0.00026,63.8,66.9,10,0,.,.,13.48,0.00,0.00
15min,AgWx,beryljct,423,01JUL2020:02:45:00,49.4,12.81,46.9,47.4,50.5,53.2,47.4,41,56,30,0.620,27.3,32.4,22.0,0.745,2.5,298,12,4.2,0.00001,0.00005,63.5,66.8,10,0,.,.,13.49,0.00,0.00
15min,AgWx,beryljct,423,01JUL2020:03:00:00,49.0,12.81,47.9,47.7,47.5,49.2,45.9,55,63,47,0.596,32.0,34.0,29.8,1.688,2.1,287,8.5,3.4,-0.00008,-0.00008,63.2,66.7,10,0,.,.,13.48,0.00,0.00
15min,AgWx,beryljct,423,01JUL2020:03:15:00,48.5,12.81,44.9,48.6,49.0,51.2,47.6,48,53,39,0.595,29.9,31.4,26.7,0,1.0,300,4.7,2.7,-0.00019,-0.00026,62.9,66.6,10,0,.,.,13.49,0.00,0.00
15min,AgWx,beryljct,423,01JUL2020:03:30:00,48.2,12.8,49.4,49.6,49.9,51.4,47.5,47,56,41,0.494,30.4,33.5,26.8,2.083,2.0,330,13,3.2,-0.00006,-0.00006,62.6,66.5,10,0,.,.,13.49,0.00,0.00
15min,AgWx,beryljct,423,01JUL2020:03:45:00,47.9,12.78,47.5,47.5,48.4,50.2,46.8,46,54,39,0.526,28.4,31.4,25.8,0,0.7,325,0.5,2.2,-0.00024,-0.00034,62.4,66.3,10,0,.,.,13.49,0.00,0.00
15min,AgWx,beryljct,423,01JUL2020:04:00:00,47.5,12.76,42.2,43.4,46.4,48.3,43.4,54,67,47,0.637,30.4,33.1,28.2,1.118,0.9,324,0.0,2.6,-0.00020,-0.00028,62.1,66.2,10,0,.,.,13.49,0.00,0.00
15min,AgWx,beryljct,423,01JUL2020:04:15:00,46.6,12.76,39.6,39.5,42.3,44.9,39.5,59,68,42,0.560,28.6,33.2,22.7,1.008,1.4,201,22,2.6,-0.00014,-0.00019,61.8,66.1,10,0,.,.,13.49,0.00,0.00
15min,AgWx,beryljct,423,01JUL2020:04:30:00,45.6,12.75,42.6,41.9,42.0,45.4,39.4,59,73,43,0.560,28.3,32.1,22.3,2.192,1.9,204,7.0,3.8,-0.00010,-0.00012,61.5,66.0,10,0,.,.,13.49,0.00,0.00
15min,AgWx,beryljct,423,01JUL2020:04:45:00,44.7,12.74,45.0,42.2,41.7,42.8,40.6,65,72,58,0.538,30.8,32.3,28.9,1.71,2.2,226,8.7,3.9,-0.00009,-0.00010,61.3,65.9,10,0,.,.,13.49,0.00,0.00
15min,AgWx,beryljct,423,01JUL2020:05:00:00,44.1,12.73,53.0,50.2,43.3,50.2,41.3,61,73,33,0.409,30.5,33.3,22.3,0.548,0.7,212,10,1.4,-0.00022,-0.00031,61.0,65.7,10,0,.,.,13.49,0.00,0.00
15min,AgWx,beryljct,423,01JUL2020:05:15:00,44.3,12.72,52.0,51.9,49.6,52.0,44.2,38,63,30,0.400,24.4,32.4,21.5,3.157,1.2,237,15,3.2,-0.00016,-0.00020,60.8,65.6,10,0,.,.,13.49,0.00,0.00
15min,AgWx,beryljct,423,01JUL2020:05:30:00,44.3,12.72,42.7,40.9,44.3,51.9,40.7,59,73,31,0.621,30.3,33.0,21.9,1.907,2.5,265,3.3,3.4,0.00024,0.00042,60.5,65.5,11,0,.,.,13.49,0.00,0.00
15min,AgWx,beryljct,423,01JUL2020:05:45:00,43.7,12.7,42.4,42.6,41.1,42.6,40.6,70,72,63,0.587,32.0,32.6,31.0,0,1.3,259,0.5,2.1,0.00009,0.00016,60.3,65.4,11,0,.,.,13.49,0.00,0.00
15min,AgWx,beryljct,423,01JUL2020:06:00:00,43.2,12.71,44.5,42.7,41.7,43.6,40.2,69,76,62,0.622,32.3,33.3,30.3,1.118,1.0,207,46,3.1,0.00007,0.00013,60.1,65.3,10,0,.,.,13.50,0.00,0.00
15min,AgWx,beryljct,423,01JUL2020:06:15:00,42.7,12.71,43.0,42.4,42.1,43.7,40.9,68,75,62,0.589,32.2,33.8,30.7,0.153,0.7,180,1.3,2.8,0.00007,0.00011,59.8,65.1,11,2,.,.,13.50,0.00,0.00
15min,AgWx,beryljct,423,01JUL2020:06:30:00,42.3,12.71,42.0,41.4,40.7,42.5,39.7,71,76,64,0.659,32.1,34.0,29.9,0,0.1,181,0.0,1.0,0.00008,0.00009,59.6,65.0,10,14,.,.,13.49,0.00,0.00
15min,AgWx,beryljct,423,01JUL2020:06:45:00,42.2,12.71,39.3,39.7,40.9,41.6,39.7,73,77,61,0.541,33.1,34.5,29.0,3.354,0.7,249,42,3.6,0.00026,0.00031,59.4,64.9,10,43,.,.,13.49,0.00,0.00
15min,AgWx,beryljct,423,01JUL2020:07:00:00,42.8,12.73,40.7,40.2,40.4,41.0,39.2,57,70,50,0.537,26.2,30.4,23.5,2.872,2.2,316,2.9,3.2,0.00051,0.00068,59.2,64.7,11,78,.,.,13.50,0.00,0.00
15min,AgWx,beryljct,423,01JUL2020:07:15:00,44.1,12.71,44.7,44.2,42.6,44.2,40.3,53,64,41,0.444,26.4,29.2,21.6,0.921,1.9,318,0.7,3.7,0.00067,0.00085,58.9,64.6,10,116,.,.,13.49,0.00,0.00
15min,AgWx,beryljct,423,01JUL2020:07:30:00,46.3,12.71,44.9,44.7,45.0,45.7,44.2,52,72,41,0.722,28.0,36.4,22.6,0.614,0.4,310,13,1.3,0.00075,0.00083,58.7,64.5,11,158,.,.,13.49,0.00,0.00
15min,AgWx,beryljct,423,01JUL2020:07:45:00,48.8,12.72,48.6,48.6,46.1,48.6,44.7,62,72,49,0.634,33.5,36.7,29.6,0.789,0.3,280,2.0,0.8,0.00097,0.00105,58.5,64.4,10,205,.,.,13.49,0.00,0.00
15min,AgWx,beryljct,423,01JUL2020:08:00:00,51.5,12.75,50.3,50.3,49.4,50.5,48.3,50,62,39,0.640,31.5,35.9,26.0,2.368,1.3,302,19,2.7,0.00133,0.00152,58.4,64.2,11,252,.,.,13.49,0.00,0.00
15min,AgWx,beryljct,423,01JUL2020:08:15:00,54.3,12.76,54.6,54.1,52.2,54.1,50.3,48,57,39,0.568,32.9,36.8,30.0,1.798,2.0,332,6.4,2.9,0.00170,0.00199,58.2,64.1,10,302,.,.,13.48,0.00,0.00
15min,AgWx,beryljct,423,01JUL2020:08:30:00,57.1,12.76,56.8,56.5,55.5,56.5,54.2,37,42,31,0.528,29.8,32.8,26.1,2.938,2.4,354,12,3.6,0.00212,0.00254,58.1,64.0,11,353,.,.,13.48,0.00,0.00
15min,AgWx,beryljct,423,01JUL2020:08:45:00,59.7,12.81,60.2,59.8,58.0,59.8,56.6,33,44,29,0.558,29.0,36.7,26.3,2.083,2.9,359,9.9,3.9,0.00254,0.00307,58.0,63.8,11,405,.,.,13.47,0.00,0.00
15min,AgWx,beryljct,423,01JUL2020:09:00:00,62.2,12.91,61.0,60.8,60.2,61.1,59.5,28,32,25,0.488,27.4,30.0,25.1,2.105,3.0,348,6.8,3.9,0.00293,0.00353,57.9,63.7,10,455,.,.,13.47,0.00,0.00
15min,AgWx,beryljct,423,01JUL2020:09:15:00,64.8,13.05,62.1,62.0,61.8,62.2,60.9,31,44,26,0.555,31.1,39.8,26.7,1.052,2.0,21,14,3.4,0.00317,0.00366,57.9,63.6,10,506,.,.,13.47,0.00,0.00
15min,AgWx,beryljct,423,01JUL2020:09:30:00,67.3,13.23,63.3,63.4,62.8,63.5,62.1,33,41,26,0.596,33.4,39.6,27.2,1.535,2.2,62,18,3.7,0.00351,0.00404,57.9,63.5,10,555,.,.,13.46,0.00,0.00
15min,AgWx,beryljct,423,01JUL2020:09:45:00,69.4,13.46,64.1,64.5,63.9,64.7,63.4,39,47,29,0.973,38.1,43.9,31.0,2.389,2.0,92,9.9,3.8,0.00380,0.00430,57.9,63.4,10,602,.,.,13.46,0.00,0.00
15min,AgWx,beryljct,423,01JUL2020:10:00:00,71.2,13.7,64.9,65.0,64.5,65.0,64.1,41,47,36,0.945,40.1,43.4,37.2,2.565,2.3,120,11,3.7,0.00412,0.00468,58.0,63.3,10,648,.,.,13.46,0.00,0.00
15min,AgWx,beryljct,423,01JUL2020:10:15:00,72.9,13.82,66.7,66.9,66.1,66.9,65.0,41,48,37,0.849,42.0,45.7,38.8,3.617,1.7,118,19,3.6,0.00443,0.00493,58.2,63.2,10,693,.,.,13.45,0.00,0.00
15min,AgWx,beryljct,423,01JUL2020:10:30:00,74.5,14.06,69.6,69.2,67.7,69.2,66.9,39,47,29,0.858,42.0,47.8,34.3,2.959,2.2,96,12,4.3,0.00482,0.00542,58.4,63.1,10,736,.,.,13.45,0.00,0.00
15min,AgWx,beryljct,423,01JUL2020:10:45:00,76.0,14.04,71.5,71.7,70.6,71.9,69.3,39,48,30,0.839,44.1,49.7,37.4,3.025,3.2,80,32,5.3,0.00528,0.00605,58.6,63.0,10,776,.,.,13.45,0.00,0.00
15min,AgWx,beryljct,423,01JUL2020:11:00:00,77.3,14,75.0,75.3,74.3,75.7,71.7,24,35,16,0.671,35.2,44.2,25.4,11.36,7.0,242,65,14.2,0.00619,0.00767,58.9,62.9,10,811,.,.,13.46,0.01,0.00
15min,AgWx,beryljct,423,01JUL2020:11:15:00,78.1,13.99,75.3,75.0,75.1,76.0,74.3,23,31,19,0.637,34.3,41.6,29.8,16.62,10.8,201,13,16.6,0.00687,0.00893,59.3,62.9,10,847,.,.,13.45,0.00,0.00
15min,AgWx,beryljct,423,01JUL2020:11:30:00,78.4,14.04,75.3,75.1,75.1,76.2,74.4,23,28,17,0.614,34.3,39.3,28.0,11.68,11.5,218,19,18.6,0.00713,0.00930,59.7,62.8,10,879,.,.,13.45,0.00,0.00
15min,AgWx,beryljct,423,01JUL2020:11:45:00,78.8,14.05,76.7,76.0,76.0,76.7,75.2,22,27,17,0.569,34.3,40.1,27.7,8.18,9.4,207,16,15.7,0.00720,0.00915,60.2,62.8,10,909,.,.,13.45,0.00,0.00
15min,AgWx,beryljct,423,01JUL2020:12:00:00,79.3,14.04,75.8,76.2,76.4,77.4,75.7,20,23,17,0.712,32.6,35.9,28.3,14.84,11.9,195,17,17.8,0.00765,0.00998,60.7,62.8,10,935,.,.,13.44,0.00,0.00
15min,AgWx,beryljct,423,01JUL2020:12:15:00,79.6,13.92,76.5,76.4,76.5,77.6,75.9,21,26,17,0.571,33.7,39.4,28.9,9.32,11.3,201,15,18.2,0.00771,0.00996,61.3,62.8,10,958,.,.,13.45,0.00,0.00
15min,AgWx,beryljct,423,01JUL2020:12:30:00,80.0,13.94,76.1,77.0,77.5,78.2,76.4,21,26,17,0.568,34.3,40.0,28.7,10.08,11.6,193,15,20.3,0.00794,0.01027,62.0,62.8,10,978,.,.,13.45,0.00,0.00
15min,AgWx,beryljct,423,01JUL2020:12:45:00,80.2,13.89,76.3,76.8,77.0,78.1,76.2,21,27,17,0.633,33.8,40.0,29.2,8.46,12.6,198,19,19.8,0.00805,0.01050,62.6,62.8,10,994,.,.,13.45,0.00,0.00
15min,AgWx,beryljct,423,01JUL2020:13:00:00,80.4,13.49,78.4,77.4,77.5,78.1,76.7,21,26,17,0.609,34.2,39.8,28.6,10.02,12.2,192,14,21.4,0.00813,0.01053,63.4,62.9,10,1006,.,.,13.45,0.00,0.00
15min,AgWx,beryljct,423,01JUL2020:13:15:00,80.8,13.55,77.6,77.4,77.6,78.5,77.0,22,29,19,0.693,35.7,42.6,31.9,14.82,12.2,200,18,22.1,0.00814,0.01051,64.1,62.9,10,1014,.,.,13.44,0.00,0.00
15min,AgWx,beryljct,423,01JUL2020:13:30:00,81.1,13.61,77.4,77.0,77.8,78.8,77.0,21,26,18,0.738,34.6,40.8,30.1,11.97,11.8,191,15,20.6,0.00818,0.01056,64.9,63.0,10,1020,.,.,13.45,0.00,0.00
15min,AgWx,beryljct,423,01JUL2020:13:45:00,81.4,13.53,78.7,78.3,77.9,79.1,77.1,22,30,18,0.670,36.1,43.6,31.6,12.08,11.0,203,19,17.1,0.00811,0.01035,65.6,63.1,10,1022,.,.,13.45,0.00,0.00
15min,AgWx,beryljct,423,01JUL2020:14:00:00,81.8,13.5,77.4,77.9,78.3,79.4,77.1,22,25,18,0.633,36.3,39.7,31.8,14.6,12.1,190,18,20.9,0.00823,0.01063,66.4,63.2,10,1021,.,.,13.45,0.00,0.00
15min,AgWx,beryljct,423,01JUL2020:14:15:00,82.0,13.49,77.3,78.2,78.1,78.9,77.6,22,26,16,0.844,35.9,40.7,27.8,8.51,11.2,199,17,17.2,0.00812,0.01041,67.2,63.4,10,1015,.,.,13.45,0.00,0.00
15min,AgWx,beryljct,423,01JUL2020:14:30:00,82.1,13.48,78.5,78.8,78.1,79.1,77.3,23,27,18,0.703,36.7,41.0,30.6,8.94,9.7,206,21,14.6,0.00791,0.00998,67.9,63.5,10,1006,.,.,13.45,0.00,0.00
15min,AgWx,beryljct,423,01JUL2020:14:45:00,82.3,13.45,77.2,78.2,78.8,79.8,77.9,22,26,17,0.666,36.4,41.0,31.4,9.76,11.1,197,18,21.6,0.00803,0.01031,68.7,63.6,10,993,.,.,13.45,0.00,0.00
15min,AgWx,beryljct,423,01JUL2020:15:00:00,82.2,13.45,79.7,79.2,78.9,80.4,77.8,22,29,17,0.713,36.2,45.1,29.8,11.84,8.9,199,19,19.3,0.00773,0.00972,69.4,63.8,10,977,.,.,13.45,0.00,0.00
15min,AgWx,beryljct,423,01JUL2020:15:15:00,82.2,13.44,78.4,79.2,78.6,80.0,77.4,20,25,16,0.775,34.3,39.7,28.0,5.152,10.8,203,21,18.0,0.00781,0.01009,70.1,64.0,10,957,.,.,13.45,0.00,0.00
15min,AgWx,beryljct,423,01JUL2020:15:30:00,82.6,13.45,76.9,77.8,78.8,79.8,77.8,22,29,18,0.701,36.6,42.9,31.3,12.65,10.6,204,25,18.7,0.00760,0.00978,70.8,64.2,10,934,.,.,13.45,0.00,0.00
15min,AgWx,beryljct,423,01JUL2020:15:45:00,82.7,13.45,78.8,79.7,78.9,80.3,77.4,21,26,16,0.851,35.4,41.9,28.6,5.393,11.1,201,16,21.7,0.00754,0.00983,71.5,64.4,10,909,.,.,13.45,0.00,0.00
15min,AgWx,beryljct,423,01JUL2020:16:00:00,83.1,13.41,78.3,78.1,79.0,79.7,78.1,21,28,14,0.702,35.3,43.5,26.0,8.24,10.4,199,22,20.3,0.00728,0.00945,72.1,64.6,10,879,.,.,13.45,0.00,0.00
15min,AgWx,beryljct,423,01JUL2020:16:15:00,83.6,13.46,78.2,79.4,79.0,79.8,78.0,21,29,16,0.615,36.1,43.2,29.9,11.71,11.5,204,16,19.4,0.00718,0.00948,72.6,64.8,10,847,.,.,13.45,0.00,0.00
15min,AgWx,beryljct,423,01JUL2020:16:30:00,83.9,13.4,79.3,78.9,79.0,79.9,78.1,21,27,17,0.659,35.9,42.9,31.1,14.16,10.2,209,20,16.3,0.00663,0.00872,73.2,65.0,10,783,.,.,13.45,0.00,0.00
15min,AgWx,beryljct,423,01JUL2020:16:45:00,84.1,13.43,79.0,79.2,79.1,79.9,78.3,21,25,18,0.849,35.6,40.5,31.2,8.79,11.4,193,21,16.6,0.00649,0.00876,73.6,65.2,10,733,.,.,13.45,0.00,0.00
15min,AgWx,beryljct,423,01JUL2020:17:00:00,84.1,13.45,78.6,79.1,78.7,79.4,77.5,21,27,17,0.759,35.6,41.4,30.6,8.55,11.1,196,33,18.4,0.00642,0.00862,74.0,65.5,10,735,.,.,13.45,0.00,0.00
15min,AgWx,beryljct,423,01JUL2020:17:15:00,83.8,13.42,78.3,78.4,78.3,79.0,77.7,22,25,18,0.670,36.1,40.4,31.8,20.72,12.6,219,12,20.7,0.00625,0.00858,74.4,65.7,10,690,.,.,13.46,0.01,0.00
15min,AgWx,beryljct,423,01JUL2020:17:30:00,83.5,13.45,79.3,78.3,78.7,79.9,78.1,21,26,17,0.801,35.4,40.8,30.2,9.58,11.7,202,20,18.7,0.00580,0.00805,74.7,65.9,10,620,.,.,13.45,0.00,0.00
15min,AgWx,beryljct,423,01JUL2020:17:45:00,83.5,13.42,78.3,78.1,78.7,79.3,77.8,21,24,17,0.664,35.2,39.3,29.9,16.7,12.9,200,17,22.0,0.00583,0.00821,74.9,66.1,10,604,.,.,13.45,0.00,0.00
15min,AgWx,beryljct,423,01JUL2020:18:00:00,83.2,13.43,77.6,78.0,78.6,79.4,77.9,21,25,17,0.685,35.0,39.4,31.3,13.94,12.0,209,14,20.5,0.00543,0.00769,75.0,66.4,10,557,.,.,13.45,0.00,0.00
15min,AgWx,beryljct,423,01JUL2020:18:15:00,82.8,13.46,76.8,77.4,77.9,78.5,77.4,21,26,18,0.681,35.2,40.3,31.3,14.42,12.7,225,12,22.2,0.00516,0.00745,75.1,66.6,10,509,.,.,13.46,0.01,0.00
15min,AgWx,beryljct,423,01JUL2020:18:30:00,82.2,13.46,78.2,78.5,77.7,78.5,77.2,20,25,18,0.604,33.9,38.9,31.7,10.19,13.8,226,13,20.6,0.00504,0.00747,75.2,66.8,10,461,.,.,13.45,0.00,0.00
15min,AgWx,beryljct,423,01JUL2020:18:45:00,81.9,13.29,76.8,77.0,77.9,78.4,77.0,21,24,18,0.719,34.5,38.5,31.2,10.35,11.5,215,12,17.7,0.00439,0.00650,75.2,67.0,10,410,.,.,13.45,0.00,0.00
15min,AgWx,beryljct,423,01JUL2020:19:00:00,81.4,13.18,78.2,77.5,77.2,77.7,76.6,21,24,19,0.616,34.5,37.1,31.9,15.94,11.5,221,14,17.5,0.00403,0.00609,75.1,67.2,10,360,.,.,13.46,0.01,0.00
15min,AgWx,beryljct,423,01JUL2020:19:15:00,81.0,13.11,76.7,77.0,77.1,77.5,76.6,21,24,19,0.643,33.9,37.0,31.4,10.85,11.6,217,11,19.4,0.00376,0.00583,75.0,67.4,10,311,.,.,13.45,0.00,0.00
15min,AgWx,beryljct,423,01JUL2020:19:30:00,80.6,13.09,75.1,76.2,76.8,77.2,76.2,21,24,18,0.707,33.7,36.8,31.0,7.497,11.7,218,13,15.9,0.00345,0.00551,74.8,67.6,10,261,.,.,13.45,0.00,0.00
15min,AgWx,beryljct,423,01JUL2020:19:45:00,80.1,13.07,75.6,76.0,76.6,77.2,76.0,21,23,19,0.671,33.6,35.6,31.5,9.4,10.4,213,13,15.7,0.00292,0.00478,74.7,67.7,10,213,.,.,13.46,0.00,0.00
15min,AgWx,beryljct,423,01JUL2020:20:00:00,79.5,13.06,75.6,76.1,76.0,76.7,75.4,21,24,19,0.632,33.4,35.8,30.8,9.65,10.5,218,11,15.7,0.00263,0.00445,74.5,67.8,10,169,.,.,13.46,0.00,0.00
15min,AgWx,beryljct,423,01JUL2020:20:15:00,78.9,13.04,76.1,75.5,75.6,76.2,75.1,21,22,20,0.625,32.9,34.1,31.6,12.63,10.3,220,10,13.8,0.00148,0.00191,74.3,68.0,10,126,.,.,13.46,0.00,0.00
15min,AgWx,beryljct,423,01JUL2020:20:30:00,77.9,13.05,74.6,74.1,75.0,75.7,74.1,22,24,20,0.658,33.5,34.9,31.7,10.06,10.1,221,10,16.0,0.00135,0.00175,74.0,68.1,10,85,.,.,13.46,0.00,0.00
15min,AgWx,beryljct,423,01JUL2020:20:45:00,77.0,13.03,72.6,73.6,74.5,75.1,73.4,22,24,21,0.658,33.3,34.5,32.0,6.292,9.5,217,9.0,13.8,0.00120,0.00158,73.7,68.2,10,47,.,.,13.46,0.00,0.00
15min,AgWx,beryljct,423,01JUL2020:21:00:00,75.4,13.02,73.0,72.0,72.3,73.6,71.5,24,27,23,0.638,33.9,36.0,32.7,8.31,7.0,219,7.7,9.2,0.00080,0.00112,73.4,68.3,10,13,.,.,13.46,0.00,0.00
15min,AgWx,beryljct,423,01JUL2020:21:15:00,73.6,13,71.4,69.3,70.5,72.3,69.2,26,28,23,0.675,34.2,34.9,32.8,7.322,6.0,216,5.0,7.9,0.00062,0.00089,73.1,68.4,10,3,.,.,13.46,0.00,0.00
15min,AgWx,beryljct,423,01JUL2020:21:30:00,71.6,12.99,68.3,68.5,68.5,69.7,67.4,29,32,26,0.657,34.7,36.7,32.7,3.486,4.3,212,6.9,7.5,0.00037,0.00057,72.7,68.5,10,0,.,.,13.47,0.01,0.00
15min,AgWx,beryljct,423,01JUL2020:21:45:00,69.7,12.99,68.6,68.0,68.0,69.8,65.9,28,36,24,0.613,33.8,38.7,30.9,4.362,3.8,198,12,4.4,0.00030,0.00048,72.3,68.5,10,0,.,.,13.46,0.00,0.00
15min,AgWx,beryljct,423,01JUL2020:22:00:00,68.0,12.97,67.5,67.1,67.0,68.2,65.9,28,33,25,0.578,33.0,36.1,30.1,3.047,4.1,197,12,4.8,0.00033,0.00052,72.0,68.6,10,0,.,.,13.47,0.00,0.00
15min,AgWx,beryljct,423,01JUL2020:22:15:00,66.2,12.97,64.2,64.0,63.3,67.3,60.7,34,44,26,0.609,34.4,39.7,30.1,4.932,3.8,168,20,5.0,0.00023,0.00037,71.6,68.6,10,0,.,.,13.47,0.00,0.00
15min,AgWx,beryljct,423,01JUL2020:22:30:00,64.4,12.97,62.6,61.9,61.6,64.2,58.8,34,43,29,0.556,33.0,36.9,29.4,4.494,4.4,171,11,5.3,0.00029,0.00044,71.3,68.6,10,0,.,.,13.47,0.01,0.00
15min,AgWx,beryljct,423,01JUL2020:22:45:00,62.9,12.96,61.1,60.6,60.7,62.7,58.2,34,40,29,0.614,32.1,35.8,29.9,4.976,5.2,166,7.6,6.5,0.00036,0.00052,70.9,68.6,10,0,.,.,13.47,0.00,0.00
15min,AgWx,beryljct,423,01JUL2020:23:00:00,61.6,12.96,60.2,59.6,58.3,60.7,56.1,38,44,32,0.630,33.0,35.0,30.2,6.642,5.0,183,5.5,7.1,0.00030,0.00043,70.5,68.6,10,0,.,.,13.47,0.00,0.00
15min,AgWx,beryljct,423,01JUL2020:23:15:00,60.7,12.95,57.9,57.0,58.4,59.8,56.8,40,46,36,0.715,34.3,36.2,32.9,6.116,5.4,182,5.9,6.9,0.00032,0.00045,70.2,68.6,10,0,.,.,13.48,0.00,0.00
15min,AgWx,beryljct,423,01JUL2020:23:30:00,60.0,12.93,59.1,59.3,58.8,59.8,57.2,40,45,37,0.684,34.7,36.2,33.7,5.568,5.9,180,5.7,6.9,0.00035,0.00050,69.8,68.6,10,0,.,.,13.48,0.00,0.00
15min,AgWx,beryljct,423,01JUL2020:23:45:00,59.7,12.93,58.5,58.7,58.4,59.2,58.0,42,43,40,0.687,35.3,36.1,34.7,4.889,5.7,186,7.1,7.0,0.00033,0.00046,69.5,68.6,10,0,.,.,13.48,0.00,0.00
15min,AgWx,bigpiney,439,01JUL2020:00:00:00,43.4,12.72,38.8,38.4,38.0,38.5,37.7,87,88,85,0.671,34.4,34.6,34.2,4.604,4.1,215,10,5.7,-0.00002,-0.00001,52.2,49.7,55,0,0,0.0,7.85,0.00,0.00
15min,AgWx,bigpiney,439,01JUL2020:00:15:00,42.6,12.71,38.5,38.4,38.4,38.6,38.2,85,86,84,0.662,34.1,34.4,33.9,6.007,4.7,219,8.8,6.3,0.00000,0.00001,52.1,49.7,55,0,0,0.0,7.85,0.00,0.00
15min,AgWx,bigpiney,439,01JUL2020:00:30:00,42.1,12.71,39.6,39.3,38.7,39.3,38.3,83,84,81,0.664,33.9,34.1,33.6,6.248,5.8,226,11,7.8,0.00003,0.00004,52.1,49.7,55,0,0,0.0,7.85,0.00,0.00
15min,AgWx,bigpiney,439,01JUL2020:00:45:00,41.8,12.7,38.3,38.5,39.3,39.7,38.5,81,83,80,0.655,34.0,34.2,33.6,4.275,5.3,233,11,7.5,0.00003,0.00005,52.0,49.7,55,0,0,0.0,7.85,0.00,0.00
15min,AgWx,bigpiney,439,01JUL2020:01:00:00,41.4,12.7,35.7,35.8,37.8,38.5,35.8,84,86,83,0.610,33.5,33.9,31.9,3.288,3.6,221,25,4.7,-0.00002,-0.00001,52.0,49.7,55,0,0,0.0,7.85,0.00,0.00
15min,AgWx,bigpiney,439,01JUL2020:01:15:00,41.0,12.68,36.0,36.2,36.1,36.5,35.5,87,89,86,0.625,32.6,33.1,32.1,1.82,3.2,205,11,4.7,-0.00004,-0.00004,52.0,49.7,55,0,0,0.0,7.85,0.00,0.00
15min,AgWx,bigpiney,439,01JUL2020:01:30:00,40.4,12.67,35.8,36.2,36.0,36.8,35.1,87,89,85,0.620,32.4,32.8,31.9,4.121,3.4,213,18,6.4,-0.00003,-0.00003,51.9,49.7,55,0,0,0.0,7.85,0.00,0.00
15min,AgWx,bigpiney,439,01JUL2020:01:45:00,39.9,12.66,35.9,35.5,35.5,36.1,35.3,88,89,86,0.616,32.3,32.5,32.2,2.346,3.8,221,10,5.5,-0.00003,-0.00003,51.8,49.7,55,0,0,0.0,7.85,0.00,0.00
15min,AgWx,bigpiney,439,01JUL2020:02:00:00,39.5,12.66,37.4,37.6,36.6,37.7,35.5,85,89,83,0.634,32.7,33.0,32.2,0,2.1,313,41,4.0,-0.00006,-0.00007,51.8,49.7,55,0,0,0.0,7.85,0.00,0.00
15min,AgWx,bigpiney,439,01JUL2020:02:15:00,39.3,12.65,39.2,38.9,38.6,39.2,37.4,79,84,76,0.644,32.7,33.3,32.3,1.14,1.7,257,9.1,2.9,-0.00006,-0.00007,51.7,49.7,55,0,0,0.0,7.85,0.00,0.00
15min,AgWx,bigpiney,439,01JUL2020:02:30:00,39.4,12.65,38.6,38.4,38.8,39.0,38.4,81,83,80,0.656,33.5,33.8,33.3,3.639,2.3,250,12,3.9,-0.00004,-0.00005,51.6,49.7,55,0,0,0.0,7.85,0.00,0.00
15min,AgWx,bigpiney,439,01JUL2020:02:45:00,39.7,12.62,38.4,38.6,38.2,38.7,37.2,85,87,80,0.633,33.9,34.6,32.9,2.039,2.1,128,84,5.3,-0.00006,-0.00007,51.6,49.7,55,0,0,0.0,7.85,0.00,0.00
15min,AgWx,bigpiney,439,01JUL2020:03:00:00,40.2,12.63,37.8,37.5,37.8,38.5,37.5,86,90,80,0.684,34.1,34.9,32.9,0.855,1.4,183,28,2.6,-0.00008,-0.00011,51.5,49.7,55,0,0,0.0,7.85,0.00,0.00
15min,AgWx,bigpiney,439,01JUL2020:03:15:00,40.5,12.62,39.3,38.9,38.2,38.9,37.5,88,90,85,0.691,35.0,35.8,34.6,0.592,1.0,282,70,2.4,-0.00010,-0.00014,51.4,49.7,55,0,0,0.0,7.85,0.00,0.00
15min,AgWx,bigpiney,439,01JUL2020:03:30:00,40.9,12.61,38.7,38.7,38.7,39.2,38.4,90,92,86,0.733,35.9,36.6,35.1,2.894,1.3,15,20,3.1,-0.00009,-0.00013,51.3,49.7,55,0,0,0.0,7.85,0.00,0.00
15min,AgWx,bigpiney,439,01JUL2020:03:45:00,41.1,12.6,38.0,37.9,38.1,38.7,37.8,92,92,91,0.704,35.9,36.5,35.5,2.346,2.2,22,28,3.7,-0.00008,-0.00009,51.2,49.7,55,0,0,0.0,7.85,0.00,0.00
15min,AgWx,bigpiney,439,01JUL2020:04:00:00,41.2,12.59,37.7,37.5,37.7,37.9,37.5,92,93,91,0.705,35.6,35.9,35.5,1.469,1.8,336,15,3.0,-0.00008,-0.00011,51.2,49.7,55,0,0,0.0,7.85,0.00,0.00
15min,AgWx,bigpiney,439,01JUL2020:04:15:00,41.1,12.59,37.6,37.5,37.6,37.7,37.4,93,94,93,0.707,35.8,36.0,35.6,1.776,1.7,297,14,2.6,-0.00009,-0.00012,51.1,49.7,55,0,0,0.0,7.85,0.00,0.00
15min,AgWx,bigpiney,439,01JUL2020:04:30:00,40.7,12.57,36.4,36.4,36.7,37.5,36.3,91,93,90,0.654,34.3,35.6,33.6,2.214,1.9,302,10,2.6,-0.00008,-0.00010,51.0,49.6,55,0,0,0.0,7.85,0.00,0.00
15min,AgWx,bigpiney,439,01JUL2020:04:45:00,40.2,12.56,36.7,36.4,36.3,36.4,36.1,90,90,90,0.653,33.6,33.8,33.5,1.798,1.9,279,24,3.0,-0.00007,-0.00010,50.9,49.7,55,0,0,0.0,7.85,0.00,0.00
15min,AgWx,bigpiney,439,01JUL2020:05:00:00,39.9,12.54,37.0,36.7,36.4,36.7,36.2,90,92,89,0.677,33.9,34.6,33.6,0,1.3,230,12,2.3,-0.00009,-0.00012,50.8,49.7,55,0,0,0.0,7.85,0.00,0.00
15min,AgWx,bigpiney,439,01JUL2020:05:15:00,39.5,12.54,35.4,35.2,36.0,36.7,35.2,92,92,91,0.637,33.9,34.7,33.0,1.578,1.1,214,14,2.8,-0.00010,-0.00014,50.7,49.6,55,0,0,0.0,7.85,0.00,0.00
15min,AgWx,bigpiney,439,01JUL2020:05:30:00,39.0,12.52,35.0,34.9,35.1,35.4,34.8,93,94,92,0.643,33.3,33.5,33.0,1.666,2.2,258,17,2.9,-0.00007,-0.00009,50.7,49.7,55,0,1,0.0,7.85,0.00,0.00
15min,AgWx,bigpiney,439,01JUL2020:05:45:00,38.6,12.51,34.7,34.6,34.8,35.0,34.6,93,94,91,0.617,32.8,33.4,32.3,2.565,1.9,298,20,2.7,-0.00007,-0.00010,50.6,49.6,55,2,1,0.0,7.85,0.00,0.00
15min,AgWx,bigpiney,439,01JUL2020:06:00:00,38.2,12.51,33.9,33.8,34.1,34.7,33.8,91,92,90,0.599,31.8,32.4,31.5,0.877,1.8,317,8.9,3.3,-0.00006,-0.00008,50.5,49.6,55,6,1,0.0,7.85,0.00,0.00
15min,AgWx,bigpiney,439,01JUL2020:06:15:00,37.7,12.53,34.8,34.5,34.3,34.5,33.8,91,92,90,0.615,31.9,32.2,31.5,2.324,1.5,309,14,2.3,-0.00026,-0.00026,50.5,49.6,55,21,1,0.0,7.85,0.00,0.00
15min,AgWx,bigpiney,439,01JUL2020:06:30:00,37.4,12.55,35.5,35.2,34.9,35.3,34.5,91,91,90,0.627,32.5,32.7,32.2,2.324,2.3,302,11,3.2,-0.00013,-0.00011,50.4,49.6,55,44,1,0.0,7.85,0.00,0.00
15min,AgWx,bigpiney,439,01JUL2020:06:45:00,37.6,12.56,38.2,37.7,36.5,37.7,35.3,90,90,89,0.680,33.7,34.9,32.7,0.811,1.2,280,15,2.5,0.00005,0.00007,50.3,49.6,55,102,0,0.0,7.85,0.00,0.00
15min,AgWx,bigpiney,439,01JUL2020:07:00:00,38.5,12.59,39.3,38.5,38.2,39.0,37.7,88,91,86,0.713,35.0,35.9,34.7,1.688,0.9,264,32,2.3,0.00019,0.00022,50.2,49.6,55,131,0,0.0,7.85,0.00,0.00
15min,AgWx,bigpiney,439,01JUL2020:07:15:00,40.0,12.64,40.8,41.0,40.1,41.1,38.5,84,90,81,0.708,35.7,36.3,35.3,2.433,1.9,308,14,3.7,0.00043,0.00050,50.1,49.6,55,174,0,0.0,7.85,0.00,0.00
15min,AgWx,bigpiney,439,01JUL2020:07:30:00,41.8,12.67,42.4,41.7,41.5,42.0,40.9,80,83,78,0.706,35.7,36.7,35.2,0,1.3,265,27,2.4,0.00069,0.00077,50.0,49.6,55,222,0,0.0,7.85,0.00,0.00
15min,AgWx,bigpiney,439,01JUL2020:07:45:00,43.9,12.78,43.1,42.7,42.4,43.1,41.7,79,81,78,0.739,36.4,37.5,35.7,0,0.4,314,37,2.5,0.00091,0.00098,50.0,49.6,55,260,0,0.0,7.85,0.00,0.00